AirNav   Everest Fuels
 
 583 users online  

08R Richmond Airport
West Kingston, Rhode Island, USA

GOING TO WEST KINGSTON?


FAA INFORMATION EFFECTIVE 16 JULY 2020

Location

FAA Identifier: 08R
Lat/Long: 41-29-22.2000N 071-37-14.3000W
41-29.370000N 071-37.238333W
41.4895000,-71.6206389
(estimated)
Elevation: 130.4 ft. / 40 m (estimated)
Variation: 15W (1985)
From city: 3 miles W of WEST KINGSTON, RI
Time zone: UTC -4 (UTC -5 during Standard Time)
Zip code: 02892

Airport Operations

Airport use: Open to the public
Activation date: 06/1955
Control tower: no
ARTCC: BOSTON CENTER
FSS: BRIDGEPORT FLIGHT SERVICE STATION
NOTAMs facility: BDR (NOTAM-D service available)
Attendance: 0900-1700
Wind indicator: lighted
Segmented circle: no
Lights: ACTVT LIRL RWY 11/29; WINDSOCK LGTS - CTAF.
Beacon: ROTG BCN OTS INDEFLY.

Airport Communications

CTAF/UNICOM: 122.8
WX ASOS at OQU (11 nm NE): 118.6
WX ASOS at WST (12 nm SW): 132.375 (401-596-9543)
WX ASOS at UUU (15 nm E): 132.075 (401-846-5910)
WX ASOS at PVD (16 nm NE): 124.2 (401-734-2818)
WX AWOS-3PT at BID (19 nm S): 134.775 (401-466-5495)
  • CLNC DLVY THRU BRIDGEPORT RADIO (BDR) 1-866-293-5149.

Nearby radio navigation aids

VOR radial/distance  VOR name  Freq  Var
PVDr225/16.5PROVIDENCE VOR/DME115.6014W
ORWr117/17.5NORWICH VOR/DME110.0014W
SEYr009/19.4SANDY POINT VOR/DME117.8015W
GONr078/21.6GROTON VOR/DME110.8514W
PUTr174/29.7PUTNAM VOR/DME117.4014W

Airport Services

Fuel available: 100LL
Parking: hangars and tiedowns
Airframe service: MAJOR
Powerplant service: MAJOR

Runway Information

Runway 11/29

Dimensions: 2129 x 30 ft. / 649 x 9 m
Surface: asphalt, in excellent condition
Runway edge lights: non-standard
NSTD LIRL LCTD 30 FT FM EDGE OF PAVEMENT.
Runway edge markings: DSPLCD THR LGTD & MKD WITH WHITE BAR & NR.
RUNWAY 11  RUNWAY 29
Latitude: 41-29.394915N41-29.345610N
Longitude: 071-37.469095W071-37.007455W
Elevation: 130.4 ft.127.1 ft.
Traffic pattern: leftleft
Displaced threshold: no130 ft.
Markings: numbers only, in good conditionnumbers only, in good condition
Visual slope indicator: tri-color VASI on left (5.50 degrees glide path)
Touchdown point: yes, no lightsyes, no lights
Obstructions: 45 ft. trees, 600 ft. from runway, 45 ft. right of centerline, 8:1 slope to clear
RWY 11, +23 FT TREES 150 FT FM THLD, 50 FT LEFT; +27 FT TREES 160 FT FM THLD, 110 FT RIGHT.
65 ft. tree, 200 ft. from runway, 45 ft. right of centerline
RWY 29, 11 FT WIDE ROAD 90 FT FM THLD, ON CNTRLN; +40 FT TREES 125 FT FM THLD, 110 FT LEFT; +65 FT TREES 200 FT FM THLD, 45 FT RIGHT.

Airport Ownership and Management from official FAA records

Ownership: Privately-owned
Owner: GORDON REALTY, INC
23 HEATON ORCHARD RD
WEST KINGSTON, RI 02892
Phone 401-783-1498
Manager: JACK GORDON
23 HEATON ORCHARD RD
WEST KINGSTON, RI 02892
Phone 401-783-1498

Airport Operational Statistics

Aircraft based on the field: 22
Single engine airplanes: 15
Ultralights: 7
    
Aircraft operations: avg 95/week *
67% local general aviation
33% transient general aviation
* for 12-month period ending 27 March 2020

Additional Remarks

ULTRALIGHTS ON & INVOF ARPT.
DEER & BIRDS ON & INVOF ARPT.
RWY 11 CLSD NGTS.
+40 FT DROPOFF, 150 FT FM RWY 29 END; +10 FT DROPOFF, 200 FT FM RWY 11 END.
IREG HRS OF OPN. CALL 401 783-1498 FOR ACFT RQRG FUEL.
FOR CD CTC PROVIDENCE APCH AT 401-738-8945, WHEN APCH CLSD CTC BOSTON ARTCC AT 603-879-6859.
RWY HAS NON-STD SAFETY AREA, CTC AMGR FOR DTLS.

Instrument Procedures

There are no published instrument procedures at 08R.

Some nearby airports with instrument procedures:

KOQU - Quonset State Airport (11 nm NE)
KWST - Westerly State Airport (12 nm SW)
KUUU - Newport State Airport (15 nm E)
KPVD - Theodore Francis Green State Airport (16 nm NE)
KBID - Block Island State Airport (19 nm S)
 
Loc | Ops | Rwys | IFR | FBO | Links
Com | Nav | Svcs | Stats | Notes
Area around 08R (Richmond Airport)
 
Road maps at: MapQuest Bing Google
 
Aerial photo
WARNING: Photo may not be current or correct
Aerial photo of 08R (Richmond Airport)
Do you have a better or more recent aerial photo of Richmond Airport that you would like to share? If so, please send us your photo.

 
Sectional chart

 
Airport distance calculator
Flying to Richmond Airport? Find the distance to fly.

From to 08R

Sunrise and sunset
Times for 04-Aug-2020
 Local
(UTC-4)
 Zulu
(UTC)
Morning civil twilight05:1509:15
Sunrise05:4609:46
Sunset19:5923:59
Evening civil twilight20:3000:30

Current date and time
Zulu (UTC)  04-Aug-2020 05:12:12
Local (UTC-4)  04-Aug-2020 01:12:12
 
METAR
KWST 
12nm SW 
040453Z AUTO 00000KT 9SM CLR 24/22 A3006 RMK AO2 SLP179 T02440222 403170239 $
KUUU 
15nm E 
040453Z AUTO 00000KT 9SM CLR 25/23 A3007 RMK AO2 SLP181 T02500228 403110244
KPVD 
16nm NE 
040451Z 25005KT 10SM CLR 26/22 A3007 RMK AO2 SLP181 T02610222 403440250
KBID 
20nm S 
040456Z AUTO 23004KT 10SM CLR 23/22 A3007 RMK AO2 SLP182 T02280217
KGON 
21nm SW 
040456Z AUTO 17003KT 10SM CLR 22/21 A3005 RMK AO2 SLP174 T02220206 403170222
TAF
KPVD 
16nm NE 
032111Z 0321/0418 23012KT P6SM SKC FM040100 22006KT P6SM SCT200 FM040900 18003KT P6SM BKN100 FM041600 16009KT P6SM VCSH OVC025
NOTAMs
Click for the latest NOTAMs
NOTAMs are issued by the DoD/FAA and will open in a separate window not controlled by AirNav.

 

 
 

FBO, Fuel Providers, and Aircraft Ground Support

  
 Business Name 
 
 Contact 
 
 Services / Description 
 
Fuel Prices
 
Comments
  
Richmond Airport 401-783-1498
[email]
Airport management, Aviation fuel, Aircraft parking (ramp or tiedown), Public telephone, Restrooms

More info about Richmond Airport
Shell
100LL
PS $5.00 
 Updated 03-Aug-2020
 
   write
PS=Pump service
Update Fuel Prices
 

Would you like to see your business listed on this page?

 If your business provides an interesting product or service to pilots, flight crews, aircraft, or users of the Richmond Airport, you should consider listing it here.  To start the listing process, click on the button below
 
Add a business
 

Other Pages about Richmond Airport

Update a link
 
Copyright © AirNav, LLC. All rights reserved. Privacy Policy  Contact